Ephrata, WA

8:21 PM PDT on July 20, 2017 (GMT -0700)
Ephrata Municipal

Weather History for KEPH - May, 2013

Change the Weather History Date:

Monday, May 20, 2013

  Actual Average Record
Temperature  
Mean Temperature 62 °F 61 °F  
Max Temperature 77 °F 74 °F 90 °F (1958)
Min Temperature 46 °F 48 °F 36 °F (1960)
Degree Days  
Heating Degree Days 3 6  
Month to date heating degree days 63 163  
Since 1 July heating degree days 5386 5860  
Cooling Degree Days 0 1  
Month to date cooling degree days 57 17  
Year to date cooling degree days 57 19  
Growing Degree Days 10 (Base 50)    
Moisture  
Dew Point 38 °F    
Average Humidity 47    
Maximum Humidity 71    
Minimum Humidity 23    
Precipitation  
Precipitation 0.00 in 0.02 in 0.48 in (1972)
Month to date precipitation T 0.37  
Year to date precipitation 1.52 3.18  
Sea Level Pressure  
Sea Level Pressure 30.08 in    
Wind  
Wind Speed 7 mph (WSW)    
Max Wind Speed 16 mph    
Max Gust Speed 22 mph    
Visibility 10 miles    
Events      
T = Trace of Precipitation, MM = Missing Value Source: NWS Daily Summary

Daily Weather History Graph

Daily Weather History Graph

Search for Another Location

Airport or City:

Trip Planner

Search our weather history database for the weather conditions in past years. The results will help you decide how hot, cold, wet, or windy it might be!

Date:

Astronomy

May. 20, 2013 Rise Set
Actual Time 5:15 AM PDT 8:34 PM PDT
Civil Twilight 4:38 AM PDT 9:11 PM PDT
Nautical Twilight 3:49 AM PDT 10:00 PM PDT
Astronomical Twilight 2:47 AM PDT 11:03 PM PDT
Moon 3:29 PM PDT (5/20) 2:33 AM PDT (5/20)
Length of Visible Light 16h 33m
Length of Day
15h 18m
Waxing Gibbous, 76% of the Moon is Illuminated
May 20
Waxing Gibbous
May 24
Full
May 31
Last Quarter
Jun 8
New
Jun 16
First Quarter

Hourly Weather History & Observations

Time (PDT) Temp. Windchill Dew Point Humidity Pressure Visibility Wind Dir Wind Speed Gust Speed Precip Events Conditions
12:53 AM 57.0 °F - 36.0 °F 45% 30.20 in 10.0 mi WNW 3.5 mph - N/A   Clear
1:53 AM 57.0 °F - 36.0 °F 45% 30.20 in 10.0 mi West 10.4 mph - N/A   Clear
2:53 AM 55.9 °F - 36.0 °F 47% 30.21 in 10.0 mi NW 9.2 mph - N/A   Clear
5:53 AM 46.0 °F 43.9 °F 37.9 °F 73% 30.24 in 10.0 mi NNE 4.6 mph - N/A   Clear
6:53 AM 51.1 °F - 39.0 °F 63% 30.23 in 10.0 mi NE 4.6 mph - N/A   Clear
7:53 AM 54.0 °F - 39.9 °F 59% 30.23 in 10.0 mi ENE 4.6 mph - N/A   Clear
8:53 AM 60.1 °F - 39.9 °F 47% 30.22 in 10.0 mi NE 4.6 mph - N/A   Clear
9:53 AM 62.1 °F - 39.9 °F 44% 30.20 in 10.0 mi Variable 3.5 mph - N/A   Clear
10:53 AM 66.9 °F - 39.0 °F 36% 30.17 in 10.0 mi SSW 8.1 mph - N/A   Clear
11:53 AM 69.1 °F - 39.9 °F 35% 30.16 in 10.0 mi SSW 8.1 mph - N/A   Clear
12:53 PM 72.0 °F - 39.0 °F 30% 30.13 in 10.0 mi SSW 8.1 mph - N/A   Clear
1:53 PM 73.0 °F - 37.9 °F 28% 30.10 in 10.0 mi SW 10.4 mph - N/A   Clear
2:53 PM 75.0 °F - 37.9 °F 26% 30.06 in 10.0 mi South 10.4 mph 19.6 mph N/A   Clear
3:53 PM 75.9 °F - 37.0 °F 24% 30.03 in 10.0 mi SSW 13.8 mph 20.7 mph N/A   Clear
4:53 PM 75.0 °F - 36.0 °F 24% 29.99 in 10.0 mi South 13.8 mph 20.7 mph N/A   Clear
5:53 PM 73.9 °F - 35.1 °F 24% 29.97 in 10.0 mi South 5.8 mph - N/A   Clear
7:53 PM 71.1 °F - 37.0 °F 29% 29.91 in 10.0 mi SSW 3.5 mph - N/A   Clear
8:53 PM 66.0 °F - 37.0 °F 34% 29.88 in 10.0 mi West 3.5 mph - N/A   Clear
9:53 PM 62.1 °F - 39.0 °F 43% 29.86 in 10.0 mi NNW 3.5 mph - N/A   Clear
10:53 PM 57.9 °F - 37.9 °F 47% 29.84 in 10.0 mi North 4.6 mph - N/A   Clear
11:53 PM 57.9 °F - 39.0 °F 49% 29.81 in 10.0 mi North 8.1 mph - N/A   Clear